Regional Weather Roundup
Issued by NWS Green Bay, WI

Home | Current Version | Previous Version | Graphics & Text | Print | Product List | Glossary Off
Versions: 1 2 3 4 5 6 7 8 9 10 11 12 13 14 15 16 17 18 19 20 21 22 23 24 25 26 27 28 29 30 31 32 33 34 35 36 37 38 39 40 41 42 43 44 45 46 47 48 49 50

000
ASUS43 KGRB 041210
RWRGRB

NORTH-CENTRAL AND NORTHEAST WISCONSIN REGIONAL WEATHER ROUNDUP
NATIONAL WEATHER SERVICE GREEN BAY WI
600 AM CST WED MAR 04 2015

WIZ005-009-010>012-018-019-041300-
NORTH CENTRAL WISCONSIN

CITY           SKY/WX    TMP DP  RH WIND       PRES   REMARKS
IRONWOOD       CLEAR     -2  -9  71 W14       29.91R WCI -21
MANITOWISH WTR CLEAR     -5 -11  75 W8        29.90R WCI -20
ARBOR VITAE    CLEAR     -1  -8  71 W8        29.90R WCI -16
EAGLE RIVER    CLEAR     -2 -10  69 W12G18    29.88R WCI -20
LAND O LAKES   CLEAR     -1  -8  74 W7        29.87R WCI -15
RHINELANDER      N/A     -3 -12  65 W7        29.90R WCI -16
PHILLIPS       CLEAR     -4 -12  71 W5        29.94R WCI -15
ANTIGO         CLEAR      0  -7  74 W14G21    29.90R WCI -19
TOMAHAWK       CLEAR     -3 -11  70 W6        29.94R WCI -16
MERRILL        CLEAR      0 -10  63 NW6       29.95R WCI -12
$$

WIZ013-073-041300-
NORTHEAST WISCONSIN

CITY           SKY/WX    TMP DP  RH WIND       PRES   REMARKS
IRON MOUNTAIN  CLEAR      4  -5  66 W9        29.86R WCI -10
MARINETTE      CLEAR      9  -2  61 NW13      29.92R WCI  -7
OCONTO         CLEAR      9  -2  60 NW7       29.95R WCI  -2
$$

WIZ017-030-035>037-045-041300-
CENTRAL WISCONSIN

CITY           SKY/WX    TMP DP  RH WIND       PRES   REMARKS
MEDFORD        CLEAR     -2  -9  71 W7        29.95R WCI -16
WAUSAU         CLEAR      1  -7  68 NW9       29.95R WCI -14
MOSINEE        CLEAR      1  -6  71 W12       29.97R WCI -15
MARSHFIELD     CLEAR      2  -7  66 NW14      29.99R WCI -16
WISC RAPIDS    CLEAR      4  -6  63 NW10G20   30.03R WCI -11
STEVENS POINT  CLEAR      2  -8  64 W9        30.00R WCI -13
WAUPACA          N/A      9  -3  58 W13G18    30.00R WCI  -7
SHAWANO        CLEAR     10   0  62 W5        29.96R WCI   2
CLINTONVILLE   CLEAR      9   0  66 W10       29.96R WCI  -6
$$

WIZ038-039-048-051-041300-
FOX VALLEY

CITY           SKY/WX    TMP DP  RH WIND       PRES   REMARKS
NWS GREEN BAY  PTCLDY    11   1  64 W13       29.96R WCI  -4
APPLETON       MOCLDY     9   0  66 W13G26    29.97R WCI  -7
OSHKOSH        PTCLDY     9  -1  64 W14       29.99R WCI  -7
FOND DU LAC    PTCLDY    11   1  64 W13       29.99R WCI  -4
$$

WIZ022-050-052-041300-
EAST CENTRAL WISCONSIN

CITY           SKY/WX    TMP DP  RH WIND       PRES   REMARKS
STURGEON BAY   PTCLDY     9  -2  61 W12       29.95R WCI  -6
MANITOWOC      CLEAR     12   5  73 W10       29.97R WCI  -1
SHEBOYGAN      CLEAR     12   2  64 NW14      29.97R WCI  -3
$$

LMZ563-521-522-541>543-041300-
LAKESHORE

STATION/POSITION TIME  TEMP    WIND        PRES    VSBY  WAVE
                       AIR SEA DIR/SP/G                  HT/PER
                 (UTC) (F)     (DEG/KT/KT) (MB)    (MI)  (FT/S)
SHEBOYGAN LKSHOR 1200   14     280/ 13/ 16 1016.8R
KEWAUNEE LKSHORE 1200   13     310/ 12/ 15 1013.0R
NORTHPORT PIER   1100   12     280/  8/ 16 1012.2R
SISTER BAY LKSHO 1200    9     290/ 14/ 15   N/A
CHAMBERS ISLAND  1200    9     300/  3/  6 1013.5R
MENOMINEE LKSHOR 1200   11     290/ 12     1014.3R
$$



USA.gov is the U.S. government's official web portal to all federal, state and local government web resources and services.